Location: Zagreb
(45.8000°N, 16.0000°E)
Time: 14:48:27
(UTC+01:00)

CAS-4B - Pass Details

Date: 03 November 2020
Orbit: 529 x 544 km, 43.0° (Epoch: 28 November)

Event Time Altitude Azimuth Distance (km) Brightness Sun altitude
Exits shadow 04:37:20 23° 188° (S) 1,161 ? -21.6°
Drops below altitude 10° 04:39:50 10° 152° (SSE) 1,770 ? -21.2°
Sets 04:42:20 0° 138° (SE) 2,654 ? -20.7°
